Regional Weather Roundup
Issued by NWS

Home | Current Version | Previous Version | Graphics & Text | Print | Product List | Glossary On
Versions: 1 2 3 4 5 6 7 8 9 10 11 12 13 14 15 16 17 18 19 20 21 22 23 24 25 26 27 28 29 30 31 32 33 34 35 36 37 38 39 40 41 42 43 44 45 46 47 48 49 50
000
ASUS45 KBOU 191607
RWRCO

WEATHER ROUNDUP FOR COLORADO
NATIONAL WEATHER SERVICE DENVER/BOULDER CO
1000 AM MDT TUE AUG 19 2014

NOTE: "FAIR" INDICATES FEW OR NO CLOUDS BELOW 12000 FEET WITH NO
SIGNIFICANT WEATHER AND/OR OBSTRUCTIONS TO VISIBILITY.

COZ001>005-013-030-031-191700-
...NORTHWEST COLORADO...

CITY           SKY/WX    TMP DP  RH WIND       PRES   REMARKS
CRAIG          CLOUDY    64  45  49 NE5       30.13S
HAYDEN         CLOUDY    63  43  48 E9        30.16R
MEEKER         CLOUDY    66  47  50 CALM      30.13S
MOUNT WERNER   NOT AVBL
STEAMBOAT SPGS CLOUDY    57  43  58 SW3       30.18S
WALDEN         MOSUNNY   64  36  34 S13       30.23S
$$

COZ006>008-011-191700-
...WEST CENTRAL VALLEYS...

CITY           SKY/WX    TMP DP  RH WIND       PRES   REMARKS
GRAND JUNCTION LGT RAIN  62  57  83 N21       30.03F
MONTROSE       CLOUDY    73  47  39 E7        30.10S
EAGLE          CLOUDY    61  39  44 CALM      30.19F
RIFLE          PTSUNNY   67  46  47 NW5       30.08S
DELTA          CLOUDY    78  44  29 NE5       30.05S
NUCLA          CLOUDY    70  48  46 CALM      30.14S
$$

COZ017>023-064>068-191700-
...SOUTHWEST COLORADO...

CITY           SKY/WX    TMP DP  RH WIND       PRES   REMARKS
DURANGO        PTSUNNY   69  48  47 CALM      30.16F
CORTEZ         SUNNY     73  51  46 VRB5      30.11S
PAGOSA SPRINGS PTSUNNY   70  43  37 E5        30.24S
TELLURIDE      PTSUNNY   57  48  72 CALM      30.31S
WOLF CREEK PAS NOT AVBL
$$

COZ009-010-012-014-032>034-037-058>063-191700-
...CENTRAL COLORADO...

CITY           SKY/WX    TMP DP  RH WIND       PRES   REMARKS
ASPEN          CLOUDY    61  45  55 N5        30.24R
BUENA VISTA    CLOUDY    66  38  35 N9        30.23S
COPPER MTN     PTSUNNY   55  36  47 W12       30.52F
BERTHOUD PASS  FAIR      46  46 100 NE6       30.56S
COTTONWOOD PAS CLOUDY    64  34  32 W8G21     30.36S
GUNNISON       PTSUNNY   63  43  48 NE5       30.26F
KREMMLING      CLOUDY    59  36  41 S3        30.24F
LEADVILLE      CLOUDY    57  38  48 W6        30.37S
MONARCH PASS   CLOUDY    48  36  61 W16G25    30.61S
SALIDA         CLOUDY    67  44  43 N7        30.27S
SUNLIGHT       CLOUDY    55  43  62 CALM      30.44S
WILKERSON PASS NOT AVBL
$$

COZ069>075-191700-
...SAN LUIS VALLEY/SANGRE DE CRISTO MOUNTAINS...

CITY           SKY/WX    TMP DP  RH WIND       PRES   REMARKS
ALAMOSA        MOSUNNY   68  44  42 VRB5      30.22F
LA VETA PASS   PTSUNNY   61  39  44 SW6       30.38R
SAGUACHE       PTSUNNY   64  45  48 W6        30.25F
$$

COZ035-036-038>040-191700-
...NORTHERN COLORADO FRONT RANGE...

CITY           SKY/WX    TMP DP  RH WIND       PRES   REMARKS
DENVER INTL AP PTSUNNY   75  48  38 S6        30.00R
DMNS CITY PARK   N/A     76  44  32 S3        29.98F
AURORA         PTSUNNY   75  49  39 SW9       30.02S
FRONT RANGE AP NOT AVBL
ERIE MUNI ARPT MOSUNNY   76  47  36 E5        29.97S
BOULDER MUN AP MOSUNNY   73  48  40 N3        29.97F
CENTENNIAL     PTSUNNY   78  40  25 SW3       30.02F
BROOMFIELD     PTSUNNY   75  46  35 SE5       30.01S
FORT COLLINS   MOSUNNY   73  50  43 E3        29.98R
LONGMONT       MOSUNNY   76  54  45 S3        29.98S
$$

COZ041-046-047-076>085-087-088-191700-
...PIKES PEAK/PALMER DIVIDE AND SOUTHERN FOOTHILLS...

CITY           SKY/WX    TMP DP  RH WIND       PRES   REMARKS
COLO. SPRINGS  PTSUNNY   73  45  36 CALM      30.07F
A. F. ACADEMY  MOSUNNY   73  47  40 S7        30.09S
ELLICOTT       MOSUNNY   72  46  39 W3        30.06R
FALCON         MOSUNNY   73  45  36 CALM      30.13S
FORT CARSON    MOSUNNY   72  48  43 NE5       30.04F
LIMON          MOSUNNY   77  49  37 CALM      30.01S
MONUMENT HILL  PTSUNNY   75  41  29 W6        30.12S
TRINIDAD       MOSUNNY   81  45  28 CALM      30.05S
$$

COZ042>045-048>051-090-091-191700-
...NORTHEAST COLORADO...

CITY           SKY/WX    TMP DP  RH WIND       PRES   REMARKS
GREELEY ARPT   MOSUNNY   70  52  52 SE5       29.97S
AKRON          MOSUNNY   77  54  44 MISG      29.96S
BURLINGTON     PTSUNNY   76  54  46 S8        29.94S
WRAY             N/A     79  55  43 E7        29.92F
STERLING       MOSUNNY   77  63  61 CALM      29.92S
HOLYOKE        NOT AVBL
FORT MORGAN    MOSUNNY   71  54  54 SW5       29.96S
$$

COZ086-089-092>099-191700-
...SOUTHEAST COLORADO...

CITY           SKY/WX    TMP DP  RH WIND       PRES   REMARKS
PUEBLO         PTSUNNY   75  50  41 S6        29.97F
LA JUNTA       MOSUNNY   78  54  43 W6        29.94F
LAMAR          MOSUNNY   80  49  33 SW9       29.90S
SPRINGFIELD      N/A     83  50  31 S16       29.97R
$$



USA.gov is the U.S. government's official web portal to all federal, state and local government web resources and services.